DO5RS-5 Weather Reports


time (UTC)temp
C
wind
direction
speed
KPH
gust
KPH
rain 1hr
cm
rain 24hr
cm
rain mn
cm
humidity
%
barometer
mb
20260506131905 17 0.0 0.0 0.00 0.00 0.00 75 1008.4
20260506130905 16 0.0 0.0 0.00 0.00 0.00 75 1008.5
20260506125906 16 0.0 0.0 0.00 0.00 0.00 75 1008.5
20260506124906 17 0.0 0.0 0.00 0.00 0.00 72 1008.3
20260506123905 17 0.0 0.0 0.00 0.00 0.00 68 1008.2
20260506122904 18 0.0 0.0 0.00 0.00 0.00 64 1008.1
20260506121904 18 0.0 0.0 0.00 0.00 0.00 66 1008.2
20260506120904 17 0.0 0.0 0.00 0.00 0.00 71 1008.3
20260506115905 16 0.0 0.0 0.00 0.00 0.00 76 1008.4
20260506114904 16 0.0 0.0 0.00 0.00 0.00 78 1008.5
20260506113905 15 0.0 0.0 0.00 0.00 0.00 78 1008.6
20260506112904 16 0.0 0.0 0.00 0.00 0.00 79 1008.6
20260506111905 15 0.0 0.0 0.00 0.00 0.00 79 1008.0
20260506110904 15 0.0 0.0 0.00 0.00 0.00 80 1008.5
20260506105904 16 0.0 0.0 0.00 0.00 0.00 79 1008.5
20260506104905 16 0.0 0.0 0.00 0.00 0.00 78 1008.6
20260506103905 16 0.0 0.0 0.00 0.00 0.00 78 1008.5
20260506102909 15 0.0 0.0 0.00 0.00 0.00 78 1008.3
20260506100906 15 0.0 0.0 0.00 0.00 0.00 82 1008.6
20260506095905 16 0.0 0.0 0.00 0.00 0.00 80 1008.6
20260506094909 16 0.0 0.0 0.00 0.00 0.00 79 1008.4
20260506092907 16 0.0 0.0 0.00 0.00 0.00 80 1008.3
20260506091905 16 0.0 0.0 0.00 0.00 0.00 83 1008.5
20260506090904 16 0.0 0.0 0.00 0.00 0.00 83 1008.5
20260506085904 15 0.0 0.0 0.00 0.00 0.00 84 1008.4
20260506084904 15 0.0 0.0 0.00 0.00 0.00 85 1008.0
20260506083904 15 0.0 0.0 0.00 0.00 0.00 85 1008.5
20260506082903 15 0.0 0.0 0.00 0.00 0.00 84 1008.4
20260506081908 15 0.0 0.0 0.00 0.00 0.00 88 1008.3
20260506071905 14 0.0 0.0 0.00 0.00 0.00 95 1008.2
20260506070904 14 0.0 0.0 0.00 0.00 0.00 96 1008.2
20260506043904 13 0.0 0.0 0.00 0.00 0.00 97 1008.3
20260506042909 14 0.0 0.0 0.00 0.00 0.00 96 1008.2
20260506040905 14 0.0 0.0 0.00 0.00 0.00 96 1008.3
20260506035904 14 0.0 0.0 0.00 0.00 0.00 95 1008.3
20260506034904 14 0.0 0.0 0.00 0.00 0.00 94 1008.1
20260506033903 14 0.0 0.0 0.00 0.00 0.00 95 1008.2
20260506032904 14 0.0 0.0 0.00 0.00 0.00 95 1008.3
20260506031909 14 0.0 0.0 0.00 0.00 0.00 95 1008.2
20260506025907 14 0.0 0.0 0.00 0.00 0.00 96 1008.3
20260506024906 14 0.0 0.0 0.00 0.00 0.00 96 1008.4
20260506023910 14 0.0 0.0 0.00 0.00 0.00 96 1008.3
20260506020905 15 0.0 0.0 0.00 0.00 0.00 95 1008.5
20260506015910 15 0.0 0.0 0.00 0.00 0.00 97 1008.4
20260506013906 15 0.0 0.0 0.00 0.00 0.00 98 1008.5
20260506012905 15 0.0 0.0 0.00 0.00 0.00 96 1008.5
20260506011905 15 0.0 0.0 0.00 0.00 0.00 95 1008.5
20260506010906 15 0.0 0.0 0.00 0.00 0.00 95 1008.6
20260506005904 15 0.0 0.0 0.00 0.00 0.00 95 1008.5
20260506004905 15 0.0 0.0 0.00 0.00 0.00 97 1008.5
20260506003904 15 0.0 0.0 0.00 0.00 0.00 95 1008.7
20260506002905 15 0.0 0.0 0.00 0.00 0.00 94 1008.7
20260506001909 15 0.0 0.0 0.00 0.00 0.00 96 1008.8
20260505235905 15 0.0 0.0 0.00 0.00 0.00 95 1008.9
20260505234905 15 0.0 0.0 0.00 0.00 0.00 95 1009.2
20260505233904 15 0.0 0.0 0.00 0.00 0.00 95 1009.2
20260505232905 15 0.0 0.0 0.00 0.00 0.00 95 1009.2
20260505231905 15 0.0 0.0 0.00 0.00 0.00 97 1009.3
20260505230906 15 0.0 0.0 0.00 0.00 0.00 96 1009.4
20260505225907 15 0.0 0.0 0.00 0.00 0.00 95 1009.4
20260505224906 15 0.0 0.0 0.00 0.00 0.00 95 1009.5
20260505223906 15 0.0 0.0 0.00 0.00 0.00 94 1009.4
20260505222905 15 0.0 0.0 0.00 0.00 0.00 96 1009.5
20260505221905 15 0.0 0.0 0.00 0.00 0.00 94 1009.6
20260505220904 15 0.0 0.0 0.00 0.00 0.00 93 1009.1
20260505215904 15 0.0 0.0 0.00 0.00 0.00 94 1009.7
20260505214909 16 0.0 0.0 0.00 0.00 0.00 93 1009.6
20260505212908 16 0.0 0.0 0.00 0.00 0.00 92 1009.8
20260505210910 16 0.0 0.0 0.00 0.00 0.00 92 1009.9
20260505204904 16 0.0 0.0 0.00 0.00 0.00 93 1010.0
20260505203909 16 0.0 0.0 0.00 0.00 0.00 93 1010.1
20260505201907 16 0.0 0.0 0.00 0.00 0.00 91 1010.0
20260505200910 16 0.0 0.0 0.00 0.00 0.00 91 1010.0
20260505195907 16 0.0 0.0 0.00 0.00 0.00 91 1010.0
20260505194904 16 0.0 0.0 0.00 0.00 0.00 91 1009.9
20260505193905 16 0.0 0.0 0.00 0.00 0.00 91 1009.8
20260505192910 16 0.0 0.0 0.00 0.00 0.00 91 1009.9
20260505185904 16 0.0 0.0 0.00 0.00 0.00 90 1009.8
20260505184904 16 0.0 0.0 0.00 0.00 0.00 90 1009.8
20260505183905 16 0.0 0.0 0.00 0.00 0.00 89 1009.8
20260505182904 16 0.0 0.0 0.00 0.00 0.00 89 1009.9
20260505181904 16 0.0 0.0 0.00 0.00 0.00 88 1009.8
20260505180904 16 0.0 0.0 0.00 0.00 0.00 88 1009.9
20260505175905 16 0.0 0.0 0.00 0.00 0.00 88 1009.8
20260505174906 16 0.0 0.0 0.00 0.00 0.00 87 1009.8
20260505173906 16 0.0 0.0 0.00 0.00 0.00 87 1009.8
20260505172906 16 0.0 0.0 0.00 0.00 0.00 86 1009.8
20260505171905 16 0.0 0.0 0.00 0.00 0.00 86 1009.9
20260505170904 16 0.0 0.0 0.00 0.00 0.00 87 1009.9
20260505165905 16 0.0 0.0 0.00 0.00 0.00 85 1009.9
20260505164904 16 0.0 0.0 0.00 0.00 0.00 84 1010.0
20260505163904 17 0.0 0.0 0.00 0.00 0.00 83 1010.0
20260505162905 16 0.0 0.0 0.00 0.00 0.00 84 1010.1
20260505161905 17 0.0 0.0 0.00 0.00 0.00 83 1010.1
20260505160905 17 0.0 0.0 0.00 0.00 0.00 84 1010.1
20260505152904 18 0.0 0.0 0.00 0.00 0.00 74 1009.7
20260505151909 18 0.0 0.0 0.00 0.00 0.00 72 1009.5